Location: Monrovia
(34.7865°N, 86.7139°W)
Time: 23:39:59
(UTC+00:00)

Gblst 52 Del rocket - Pass Details

Date: 14 July 2020
Orbit: 805 x 1366 km, 51.5° (Epoch: 12 August)

Event Time Altitude Azimuth Distance (km) Brightness Sun altitude
Rises 02:58:56 0° 310° (NW) 3,358 8.9 -20.1°
Reaches altitude 10° 03:01:19 10° 309° (NW) 2,458 7.8 -20.5°
Maximum altitude 03:07:00 73° 225° (SW) 940 4.3 -21.2°
Enters shadow 03:09:13 41° 152° (SSE) 1,314 4.7 -21.5°
